Wind_Speed
26 25 25 25 25 24 24 25 25 25 25 25 25 25 25 25 25 24 25 25 25 25 25 25 25 25 25 25 25 25 25 25 26 26 26 26 26 26 26 26 26 26 27
28 27 27 26 26 26 26 26 26 26 26 26 26 27 26 26 26 26 26 26 27 27 26 26 26 27 27 27 27 27 27 28 28 28 28 28 28 28 28 28 28 28 28
29 28 28 28 28 27 27 27 28 28 28 27 28 27 27 27 28 27 28 28 28 27 27 27 27 28 28 29 29 29 29 30 30 30 30 30 30 30 30 30 30 30 30
30 29 29 29 29 29 28 28 28 29 29 29 29 29 29 29 29 29 28 29 29 29 29 28 29 29 29 30 30 30 31 31 31 31 31 31 31 31 31 32 32 31 32
32 31 30 30 30 30 30 29 30 29 30 30 30 30 30 30 30 30 30 30 30 30 30 30 30 30 31 31 31 31 31 32 32 32 32 32 32 32 32 32 33 32 33
34 33 31 31 31 31 31 31 31 31 31 31 31 32 32 32 31 32 32 32 32 32 32 31 31 31 32 32 32 32 32 32 33 33 33 34 34 34 34 34 34 34 34
35 35 33 32 31 31 32 33 33 33 33 33 33 34 34 34 34 33 33 33 33 33 33 33 33 33 33 33 33 33 34 34 34 34 35 35 35 35 35 35 35 35 35
34 35 36 34 33 33 34 34 34 34 35 35 34 35 35 35 35 34 34 34 34 34 35 35 35 35 35 35 35 35 36 36 36 36 36 36 37 37 37 37 37 37 37
34 33 34 35 35 36 35 34 35 35 36 36 36 36 37 36 36 36 36 36 36 36 36 37 37 37 37 37 37 37 37 37 38 38 38 38 38 39 39 39 39 39 39
33 33 34 34 34 34 35 35 35 36 37 37 38 38 39 39 39 38 38 38 38 38 38 38 38 38 38 39 39 39 39 40 40 40 40 40 40 41 41 41 40 40 40
33 33 33 34 34 35 36 37 37 37 38 38 39 39 40 41 41 40 39 38 39 39 39 39 39 39 39 39 40 40 41 41 41 42 42 42 42 42 42 42 42 42 42
34 35 35 36 36 37 38 39 39 39 39 40 41 41 42 42 41 41 40 39 39 40 40 40 40 40 41 41 42 42 42 42 42 43 44 44 44 44 44 44 44 44 43
35 37 37 38 38 39 40 40 41 41 41 41 42 42 42 42 43 43 43 42 40 40 41 42 41 42 43 43 43 44 44 44 44 45 45 45 45 45 45 45 45 45 44
36 37 38 38 39 39 41 41 42 42 43 43 43 43 43 42 43 43 44 44 43 42 41 41 42 43 44 44 45 45 45 45 46 46 46 46 46 46 47 46 46 46 46
37 38 38 38 39 40 40 41 43 43 44 44 44 44 45 45 44 44 44 45 45 44 43 43 44 44 45 46 46 46 47 47 47 47 47 47 47 47 47 47 47 47 47
38 39 40 40 40 40 41 41 43 43 44 44 44 45 45 44 44 44 44 45 46 46 46 46 46 46 46 47 47 48 48 48 48 49 49 49 48 48 48 48 48 48 48
38 39 40 40 41 42 42 43 43 44 45 45 45 45 45 45 45 46 46 46 47 47 47 47 48 48 49 49 49 49 49 49 50 50 50 49 49 49 49 49 50 50 50
39 40 41 41 41 42 43 44 45 45 45 46 46 46 46 46 47 47 47 48 48 48 48 49 49 49 50 51 51 51 50 51 51 51 50 50 50 51 51 51 52 52 52
40 41 41 42 42 43 44 44 45 46 46 46 47 47 47 48 48 49 49 49 50 50 50 51 51 52 52 52 52 51 51 52 51 51 51 52 52 53 53 53 54 54 54
42 42 43 44 45 45 45 45 46 46 47 48 48 49 49 49 50 49 50 51 51 51 52 52 51 52 52 52 53 53 53 53 53 53 54 54 54 55 55 54 54 54 54
43 44 45 45 46 46 46 46 46 47 48 49 49 50 50 51 51 50 51 51 52 53 53 53 53 54 54 54 54 54 55 55 55 56 56 56 56 56 56 56 56 55 55
43 43 44 45 45 46 47 47 47 48 48 49 50 50 50 51 52 52 52 53 54 54 55 55 56 56 56 56 56 56 57 57 56 56 57 57 58 57 57 57 56 56 55
43 44 44 45 45 46 46 46 47 48 48 49 49 50 51 52 53 53 54 54 54 55 56 56 56 56 57 57 58 58 58 58 58 57 58 57 58 57 57 57 56 56 56
44 45 46 46 47 47 47 47 47 48 48 49 50 51 52 52 53 54 54 55 55 55 56 56 56 56 57 58 58 58 58 58 57 57 58 57 57 58 58 57 57 57 57
46 47 47 47 48 48 48 48 48 48 49 50 50 51 53 53 55 55 56 56 56 56 56 57 57 57 57 58 58 58 57 57 56 56 57 57 57 57 57 57 57 57 57
47 47 48 48 48 48 49 49 50 50 50 50 51 52 53 54 55 56 57 56 56 56 56 56 56 56 57 57 57 57 57 57 56 55 55 56 56 57 56 56 56 55 55
Wind_Direction
251 252 256 258 258 260 262 263 264 266 268 270 273 275 277 281 283 285 286 287 286 287 287 288 288 289 290 290 290 290 291 291 291 292 292 291 290 291 290 290 290 291 292
252 254 254 257 258 260 262 264 264 266 268 270 273 274 276 280 282 284 284 285 286 286 286 286 287 287 288 288 289 289 289 290 290 291 290 290 290 289 288 289 289 289 290
251 254 254 256 258 259 261 265 265 265 267 269 272 274 276 280 282 283 283 284 285 284 285 285 285 286 287 288 288 288 288 289 289 288 289 289 289 288 287 288 289 289 290
252 254 255 256 257 259 261 264 267 266 267 270 272 274 275 279 281 283 283 283 283 284 284 285 285 286 287 288 288 289 289 289 288 287 288 288 289 289 288 288 288 288 289
253 254 255 257 258 260 261 264 267 268 269 270 272 273 275 278 281 283 283 283 282 283 284 285 286 286 287 287 288 288 289 288 289 288 288 288 289 289 288 288 287 287 288
252 255 256 257 258 260 262 263 266 268 271 271 271 274 275 277 280 283 283 282 282 282 282 284 285 286 286 287 288 288 289 288 289 289 288 288 288 288 288 289 288 287 287
252 255 257 258 259 260 262 265 266 268 270 272 272 273 276 276 278 281 282 281 281 281 281 283 284 285 285 286 287 287 288 288 288 288 288 287 287 287 287 288 287 287 287
255 257 258 260 261 263 264 265 267 268 270 272 273 274 275 276 277 279 280 280 280 280 281 283 283 284 284 285 285 286 287 287 287 287 287 286 287 286 287 287 286 286 286
259 260 260 262 264 265 266 267 269 270 270 272 273 274 275 276 276 277 279 279 280 280 281 282 283 283 284 284 284 285 285 286 286 286 285 285 285 286 285 285 285 285 285
259 260 262 263 264 265 266 268 269 270 270 272 274 275 276 276 276 276 278 279 279 280 281 282 283 283 283 283 283 284 285 285 285 285 285 285 286 286 285 285 285 285 285
257 258 261 261 263 265 267 268 270 272 273 273 274 275 276 277 276 275 276 278 278 279 280 281 281 281 282 282 283 284 285 285 285 285 285 285 286 286 285 285 285 285 285
255 257 259 261 263 265 268 269 271 272 274 274 275 277 278 277 277 277 276 276 277 278 279 279 279 281 281 282 283 284 284 285 286 286 285 285 286 286 285 285 284 284 284
257 258 260 262 264 265 267 270 271 272 274 274 275 276 278 278 278 277 277 277 276 276 277 278 279 281 281 282 282 283 284 284 285 285 285 285 285 285 285 284 284 283 283
259 260 262 264 266 267 269 270 272 273 274 275 276 276 277 279 280 279 279 278 277 277 277 278 279 280 281 282 282 283 283 283 284 285 284 284 284 284 284 284 283 282 282
263 263 264 266 268 269 271 271 272 273 274 275 275 277 277 279 279 279 279 278 278 278 278 278 279 279 281 282 282 283 283 283 284 284 284 284 284 284 284 283 283 282 282
266 266 267 267 269 271 272 273 274 275 275 275 275 276 277 277 279 279 280 280 279 280 279 279 279 280 281 282 282 282 283 283 283 284 284 283 283 283 283 282 282 282 282
266 266 267 269 270 272 273 274 274 275 275 275 276 277 277 277 278 278 278 279 279 280 279 279 279 280 281 281 281 282 282 283 283 284 283 283 283 283 283 283 283 283 283
267 267 268 270 273 274 275 275 274 274 275 275 276 277 277 276 277 278 278 278 278 279 280 280 280 281 281 281 282 282 282 282 283 283 283 283 283 283 283 283 283 283 283
270 270 271 272 274 275 275 275 275 275 275 275 276 277 277 277 278 278 278 278 278 278 279 280 280 280 280 280 280 281 281 282 282 283 283 283 283 284 284 284 283 283 283
273 273 273 274 276 276 277 276 275 275 276 276 276 277 277 277 278 278 278 277 277 278 279 279 279 279 279 279 280 280 280 281 282 282 283 283 283 283 283 283 283 283 283
274 275 276 277 277 277 277 277 276 276 277 277 277 277 278 277 277 278 279 278 278 278 279 278 278 279 279 279 279 280 280 280 281 282 282 283 283 283 283 283 283 284 284
276 276 276 277 277 277 277 277 277 277 277 277 277 277 277 277 277 278 279 279 279 279 279 279 279 278 279 279 279 280 280 280 281 281 282 282 283 282 282 282 283 284 284
276 277 278 278 278 277 277 278 277 277 277 278 278 278 277 278 278 279 280 280 279 279 279 279 279 279 279 280 280 281 281 281 282 282 282 282 283 283 283 283 284 284 284
276 277 278 278 279 279 278 278 279 279 280 279 279 279 279 279 280 280 280 280 281 281 280 280 280 280 280 281 282 282 281 282 282 283 283 282 282 283 283 284 284 284 284
277 278 278 279 279 279 279 279 279 280 280 280 279 279 278 279 279 280 280 281 281 280 280 281 281 281 281 282 282 281 281 282 283 283 283 283 282 282 283 284 284 284 284
279 279 279 279 279 279 279 280 280 280 280 280 280 279 279 279 279 279 281 282 281 281 281 282 282 282 282 282 281 281 281 282 283 283 283 283 283 283 283 283 284 284 283
Height
5808 5810 5812 5813 5815 5816 5817 5818 5819 5820 5820 5821 5822 5822 5822 5821 5821 5821 5820 5819 5819 5818 5817 5817 5816 5815 5814 5813 5812 5811 5810 5809 5808 5807 5806 5805 5804 5804 5803 5802 5801 5800 5798
5802 5803 5806 5807 5809 5810 5811 5812 5813 5814 5814 5815 5816 5816 5816 5816 5816 5815 5815 5814 5813 5813 5812 5811 5810 5809 5808 5807 5806 5806 5805 5804 5802 5801 5800 5799 5798 5798 5797 5796 5795 5793 5792
5796 5797 5799 5801 5803 5804 5805 5806 5806 5807 5808 5809 5809 5810 5810 5810 5810 5809 5809 5808 5807 5807 5806 5805 5804 5803 5802 5801 5800 5799 5798 5797 5796 5795 5794 5793 5792 5791 5790 5789 5788 5787 5786
5789 5791 5793 5795 5796 5797 5798 5799 5800 5801 5802 5802 5803 5803 5804 5804 5803 5803 5802 5802 5801 5801 5800 5799 5798 5797 5796 5795 5794 5793 5792 5791 5790 5789 5787 5786 5785 5784 5783 5782 5781 5780 5779
5782 5784 5787 5788 5790 5791 5792 5793 5794 5794 5795 5796 5796 5796 5797 5797 5797 5796 5796 5795 5795 5794 5793 5793 5792 5790 5789 5788 5787 5786 5785 5784 5782 5781 5780 5779 5778 5777 5775 5774 5773 5772 5771
5776 5777 5779 5781 5783 5784 5786 5786 5787 5787 5788 5789 5789 5789 5789 5790 5789 5789 5789 5788 5788 5787 5786 5786 5785 5784 5782 5781 5780 5779 5777 5776 5775 5774 5773 5772 5770 5769 5768 5767 5765 5764 5763
5769 5770 5772 5774 5776 5777 5778 5779 5780 5780 5781 5781 5782 5782 5782 5782 5782 5781 5781 5780 5780 5779 5779 5778 5777 5776 5775 5774 5773 5771 5770 5769 5767 5766 5765 5764 5762 5761 5760 5759 5757 5756 5755
5762 5763 5765 5766 5768 5770 5770 5771 5772 5773 5773 5773 5774 5774 5774 5774 5774 5773 5773 5773 5772 5771 5771 5770 5769 5768 5767 5766 5765 5763 5762 5761 5759 5758 5756 5755 5754 5753 5751 5750 5749 5747 5746
5754 5756 5757 5759 5760 5762 5763 5763 5764 5765 5765 5765 5765 5766 5766 5766 5765 5765 5764 5764 5764 5763 5762 5762 5761 5760 5759 5757 5756 5755 5753 5752 5750 5749 5748 5746 5745 5744 5742 5741 5739 5738 5736
5747 5748 5750 5752 5753 5754 5755 5755 5756 5756 5756 5757 5757 5757 5757 5757 5757 5757 5756 5755 5755 5754 5753 5752 5751 5750 5749 5748 5747 5746 5744 5743 5741 5740 5738 5737 5735 5734 5732 5730 5729 5728 5726
5738 5740 5742 5743 5744 5745 5746 5747 5747 5747 5748 5748 5748 5748 5747 5747 5747 5747 5747 5746 5745 5744 5744 5743 5742 5741 5740 5739 5737 5736 5734 5733 5731 5730 5728 5726 5725 5723 5721 5720 5719 5717 5716
5730 5732 5733 5735 5736 5737 5737 5738 5738 5738 5738 5738 5738 5738 5737 5737 5737 5737 5737 5736 5735 5734 5733 5732 5732 5731 5729 5728 5727 5726 5724 5722 5721 5719 5717 5716 5714 5712 5711 5709 5707 5706 5704
5721 5723 5724 5726 5727 5727 5728 5728 5729 5729 5728 5728 5728 5728 5727 5727 5726 5726 5726 5725 5725 5724 5723 5722 5721 5720 5719 5717 5716 5715 5713 5712 5710 5708 5706 5704 5702 5701 5699 5697 5696 5694 5693
5712 5714 5715 5716 5717 5718 5718 5718 5718 5718 5718 5718 5717 5717 5716 5716 5715 5715 5715 5714 5714 5714 5713 5711 5710 5708 5707 5706 5705 5703 5702 5700 5698 5696 5694 5693 5691 5689 5687 5686 5684 5682 5681
5703 5705 5706 5706 5707 5707 5708 5708 5708 5708 5707 5707 5706 5706 5705 5705 5704 5704 5703 5703 5703 5702 5702 5701 5699 5697 5695 5694 5693 5691 5690 5688 5686 5684 5682 5681 5679 5677 5675 5673 5671 5670 5668
5694 5695 5696 5696 5697 5697 5697 5697 5697 5696 5696 5695 5695 5694 5694 5693 5693 5692 5691 5691 5690 5690 5690 5689 5687 5685 5684 5682 5680 5679 5677 5675 5673 5671 5670 5668 5666 5664 5662 5660 5658 5657 5655
5684 5685 5685 5686 5686 5686 5686 5686 5685 5685 5685 5684 5684 5683 5682 5682 5681 5680 5679 5678 5678 5677 5677 5677 5674 5672 5671 5669 5668 5666 5664 5662 5660 5658 5656 5654 5653 5651 5649 5647 5645 5644 5642
5674 5674 5674 5675 5675 5675 5674 5674 5673 5673 5673 5672 5671 5671 5670 5669 5669 5668 5667 5666 5665 5664 5663 5663 5662 5659 5657 5656 5654 5653 5651 5649 5647 5645 5643 5641 5639 5637 5635 5633 5631 5629 5628
5663 5663 5663 5663 5663 5663 5662 5662 5661 5661 5660 5659 5659 5658 5657 5657 5656 5655 5654 5653 5651 5650 5649 5649 5648 5646 5644 5642 5640 5639 5637 5635 5633 5631 5629 5627 5625 5623 5621 5618 5616 5615 5613
5652 5652 5652 5652 5651 5651 5650 5649 5648 5648 5647 5646 5645 5645 5644 5643 5642 5641 5640 5639 5637 5636 5635 5634 5633 5631 5630 5627 5626 5624 5623 5621 5619 5617 5614 5612 5610 5608 5606 5604 5602 5600 5598
5640 5640 5639 5639 5638 5638 5637 5636 5635 5635 5634 5633 5632 5631 5630 5629 5628 5627 5626 5624 5623 5621 5620 5619 5618 5616 5614 5612 5610 5609 5608 5606 5604 5602 5599 5597 5595 5593 5590 5588 5586 5584 5582
5628 5628 5627 5626 5625 5624 5623 5622 5621 5621 5620 5619 5618 5617 5616 5614 5613 5612 5611 5609 5608 5606 5605 5603 5602 5600 5599 5596 5594 5593 5591 5590 5589 5588 5584 5582 5579 5578 5575 5573 5571 5569 5566
5616 5615 5614 5613 5612 5611 5609 5608 5607 5607 5606 5604 5603 5602 5601 5600 5599 5598 5596 5594 5592 5590 5589 5587 5586 5584 5582 5581 5579 5577 5575 5573 5572 5570 5568 5567 5564 5561 5559 5557 5555 5553 5550
5604 5603 5601 5600 5599 5597 5595 5594 5593 5593 5592 5590 5589 5588 5587 5586 5584 5582 5581 5579 5577 5575 5573 5571 5570 5568 5566 5564 5562 5560 5558 5557 5556 5553 5550 5550 5548 5545 5543 5541 5538 5536 5533
5591 5589 5588 5587 5585 5584 5582 5580 5579 5579 5578 5577 5575 5573 5572 5571 5569 5567 5566 5565 5563 5560 5557 5555 5554 5552 5549 5547 5545 5543 5542 5541 5540 5539 5534 5532 5531 5529 5528 5525 5522 5519 5516
5577 5575 5574 5573 5571 5570 5568 5566 5565 5564 5563 5562 5561 5559 5557 5555 5554 5551 5550 5548 5547 5545 5542 5540 5538 5536 5533 5531 5529 5527 5525 5524 5523 5523 5519 5516 5514 5511 5511 5511 5507 5502 5499